www.pogodaiklimat.ru

Погода и климат >> Архив погоды >> Индонезия >> Саумлаки


ПОГОДА в Саумлаки

  • Прогноз погоды в Саумлаки
  • Монитор погоды в Саумлаки

АРХИВ ПОГОДЫ в Саумлаки

Время (UTC), дата Ветер
(напр.,м/с)
 
Видим.   Явления Облачность Т
(С)
Тd
(С)
f
(%)
Тe
(С)
Тes
(С)
Комфортность P
(гПа)
Po
(гПа)
Тmin
(С)
Tmax
(С)
R
(мм)
R24
(мм)
S
(см)
03 20.05 В 6 12 км 6/5 600 м
[Cu med, cong Ac As]
+30.2 +25.1 74 +44 +47 опасность
перегрева
1011.4 1008.5 0.0
06 20.05 В 5 10 км осадки на расстоянии 9/5 480 м
[Cu Sc Ac As]
+29.8 +25.5 78 +44 +45 опасность
перегрева
1010.0 1007.1 0.0
09 20.05 В 2 12 км {дождь} 6/3 600 м
[Cu med, cong Cs]
+27.8 +24.0 80 +39 +39 очень
душно
1010.6 1007.8 0.8
12 20.05 В 3 10 км 8/4 600 м
[Cu med, cong Cs]
+26.8 +23.8 84 +37 +37 очень
душно
1012.3 1009.5 +31.2 0.0
15 20.05 В 3 7000 м слаб. дождь 8/6 480 м
[Cu Sc Cs]
+27.2 +24.3 84 +38 +38 очень
душно
1011.8 1008.9 0.0
18 20.05 В 6 7000 м 8/6 480 м
[Cu Sc Cs]
+25.2 +23.7 91 +34 +34 очень
душно
1011.2 1008.3 6
21 20.05 В 4 8000 м слаб. дождь 9/6 480 м
[Cu Sc Ac As]
+25.2 +23.7 91 +34 +34 очень
душно
1011.7 1008.8 6
00 21.05 В 4 12 км {дождь} 9/4 600 м
[Cu med, cong Ac As]
+26.0 +25.2 95 +37 +39 очень
душно
1012.4 1009.5 +25.1 0.0
03 21.05 С 5 14 км 9/5 480 м
[Cu Sc Ac As]
+29.5 +24.9 76 +42 +44 опасность
перегрева
1011.5 1008.7
06 21.05 В 4 14 км 8/4 600 м
[Cu med, cong Ac As]
+29.0 +25.0 79 +42 +44 опасность
перегрева
1009.6 1006.7
09 21.05 В 4 10 км 9/5 480 м
[Cu Sc Ac As]
+28.0 +24.7 82 +40 +40 очень
душно
1010.3 1007.5
12 21.05 В 3 10 км 9/5 480 м
[Cu Sc Ac As]
+27.5 +24.4 83 +39 +39 очень
душно
1012.9 1010.1 +31.2
15 21.05 В 4 10 км 9/5 480 м
[Cu Sc Ac As]
+27.4 +23 +23 комфорт 1013.1 1010.2
18 21.05 В 5 10 км 9/6 600 м
[Cu med, cong Ac As]
+27.3 +23.3 79 +37 +37 очень
душно
1012.2 1009.3
21 21.05 В 3 10 км {дождь} 9/5 180 м
[Cu Sc Ac As]
+27.2 +23.7 81 +37 +37 очень
душно
1012.4 1009.5 0.0
00 22.05 В 6 15 км {дождь} 4/4 600 м
[Cu med, cong Ci fib]
+28.8 +23.0 71 +39 +40 очень
душно
1013.6 1010.7 +26.8 0.0
03 22.05 В 5 15 км 5/4 600 м
[Cu med, cong Ac trans Ci fib]
+30.6 +24.0 68 +42 +47 опасность
перегрева
1012.9 1009.9
06 22.05 В 6 15 км 6/4 600 м
[Cu med, cong Ac trans Ci fib]
+30.6 +24.0 68 +42 +44 опасность
перегрева
1010.5 1007.6
12 22.05 В 5 10 км {дождь} 4/4 600 м
[Cu med, cong]
+27.4 +23.9 81 +38 +38 очень
душно
1012.8 1009.9 +30.4 0.0
15 22.05 В 5 10 км {дождь} 5/5 600 м
[Cu med, cong]
+27.5 +23.8 80 +38 +38 очень
душно
1013.2 1010.3 0.0
18 22.05 В 3 10 км 5/5 600 м
[Cu med, cong]
+27.2 +24.3 84 +38 +38 очень
душно
1011.5 1008.6 0.0
21 22.05 В 4 12 км 4/4 600 м
[Cu med, cong]
+27.4 +23.9 81 +38 +38 очень
душно
1012.4 1009.5
00 23.05 В 5 15 км 4/4 600 м
[Cu med, cong]
+28.6 +22.9 71 +38 +40 очень
душно
1014.0 1011.2 +26.8 0.0
03 23.05 В 5 15 км 4/4 600 м
[Cu med, cong]
+30.0 +23.0 66 +40 +45 очень
душно
1012.8 1009.9
06 23.05 В 4 15 км 5/5 600 м
[Cu med, cong As trans]
+29.7 +23.1 68 +40 +43 очень
душно
1010.7 1007.8
09 23.05 В 2 15 км 4/4 600 м
[Cu med, cong]
+27.8 +23.2 76 +37 +37 очень
душно
1011.6 1008.8
12 23.05 В 2 10 км 6/6 600 м
[Cu med, cong]
+27.1 +23.1 79 +36 +36 очень
душно
1013.2 1010.8 +30.5
15 23.05 ЮВ 2 10 км 4/4 600 м
[Cu med, cong]
+26.8 +23.2 81 +36 +36 очень
душно
1012.6 1009.7
18 23.05 ЮВ 3 10 км дождь 4/4 600 м
[Cu med, cong]
+26.3 +23.3 84 +36 +36 очень
душно
1011.4 1008.5 0.4
00 24.05 В 5 15 км {дождь} 4/4 600 м
[Cu med, cong As op]
+29.1 +23.6 72 +40 +42 очень
душно
1012.7 1009.8 +25.2 3
03 24.05 В 6 15 км 5/5 600 м
[Cu med, cong]
+29.8 +24.3 72 +42 +45 опасность
перегрева
1011.7 1008.8
06 24.05 В 5 15 км в посл. час дождь 6/5 480 м
[Cu Sc]
+28.6 +24.9 80 +41 +43 опасность
перегрева
1009.8 1006.9 0.0
09 24.05 В 4 8000 м осадки на расстоянии 6/6 480 м
[Cb cap]
+27.8 +24.3 81 +39 +39 очень
душно
1010.4 1007.5
12 24.05 В 4 10 км {дождь} 5/4 600 м
[Cu med, cong Cs]
+27.4 +24.5 84 +39 +39 очень
душно
1012.1 1009.2 +30.8 0.4
15 24.05 В 3 15 км 5/4 600 м
[Cu med, cong Cs]
+27.2 +24.3 84 +38 +38 очень
душно
1012.1 1009.2
18 24.05 В 2 10 км 4/4 600 м
[Cu med, cong]
+26.4 +24.3 88 +37 +37 очень
душно
1010.8 1008.0
21 24.05 ЮВ 5 8000 м слаб. дождь 6/6 480 м
[Cu Sc]
+26.2 +25.0 93 +37 +37 очень
душно
1011.4 1008.6 0.0
00 25.05 В 3 14 км {дождь} 9/8 500 м
[Cu Sc Ac trans]
+28.6 +25.2 82 +42 +42 опасность
перегрева
1012.6 1009.6 +25.2 4
03 25.05 В 6 15 км {дождь} 6/6 600 м
[Cu med, cong]
+29.3 +25.2 79 +43 +45 опасность
перегрева
1011.5 1008.6 3
06 25.05 В 4 15 км {дождь} 4/4 600 м
[Cu med, cong]
+29.5 +25.1 77 +43 +46 опасность
перегрева
1009.3 1006.4 3
09 25.05 В 3 7000 м 4/4 600 м
[Cu med, cong]
+29.1 +24.8 78 +42 +42 опасность
перегрева
1009.9 1007.0
12 25.05 ЮВ 3 7000 м в посл. час дождь 9/5 600 м
[Cu med, cong As op]
+27.4 +25.5 89 +40 +40 очень
душно
1012.1 1009.2 +30.0 0.0
15 25.05 В 4 8000 м 9/4 600 м
[Cu med, cong As op]
+26.8 +25.7 94 +40 +40 очень
душно
1011.7 1008.8
18 25.05 В 4 8000 м в посл. час дождь 9/6 500 м
[Cu Sc As op]
+26.6 +23.3 82 +36 +36 очень
душно
1010.3 1007.4 0.0
21 25.05 В 4 13 км 4/4 600 м
[Cu med, cong]
+27.0 +24.8 88 +39 +39 очень
душно
1010.5 1007.7
00 26.05 В 5 15 км {дождь} 5/5 600 м
[Cu med, cong]
+29.0 +24.7 78 +41 +43 опасность
перегрева
1012.2 1009.3 +26.0 0.0
03 26.05 В 6 15 км {дождь} 5/5 600 м
[Cu med, cong Cs]
+30.2 +25.1 74 +44 +47 опасность
перегрева
1010.8 1007.9 2
06 26.05 В 6 8000 м {дождь} 9/6 480 м
[Cb cap As op Cs]
+28.8 +24.5 78 +41 +42 опасность
перегрева
1009.2 1006.3 0.0
09 26.05 В 5 12 км 5/3 600 м
[Cu med, cong Ac trans]
+27.8 +23.7 78 +38 +38 очень
душно
1010.1 1007.2
12 26.05 В 4 12 км 5/4 600 м
[Cu med, cong Cs]
+27.6 +23.8 80 +38 +38 очень
душно
1012.0 1009.2 +30.2
15 26.05 В 4 12 км 5/4 600 м
[Cu med, cong Cs]
+27.5 +23.8 80 +38 +38 очень
душно
1011.4 1008.5
18 26.05 В 2 10 км {дождь} 9/5 600 м
[Cu med, cong As op Cs]
+26.6 +23.9 85 +37 +37 очень
душно
1010.7 1007.8 0.0
21 26.05 В 4 6000 м слаб. дождь 9/5 480 м
[Cu Sc As op Cs]
+26.2 +23.5 85 +36 +36 очень
душно
1011.6 1008.8 2
00 27.05 В 5 12 км 9/5 480 м
[Cu Sc As op Cs]
+27.2 +23.7 81 +37 +38 очень
душно
1013.7 1010.8 +25.6 5

 

Местоположение метеостанции Саумлаки (Индонезия): широта -7.98 долгота 131.30 высота над уровнем моря 24 м.

В архиве по умолчанию представлена погода в Саумлаки за последнюю неделю. Архивные данные за месяц целиком и за предыдущие месяцы, начиная с января 2011 года, Вы можете получить, выбрав интересующий диапазон дат из раскрывающегося списка и нажав кнопку "Ввод!".


*Определитесь, кто Вы:
робот инопланетянин человек

Внимание! Время в таблицах - всемирное. Для получения местного времени необходимо прибавить поправку, которая равна 9 ч.

Смотрите также архив погоды в соседних городах и на ближайших метеорологических станциях:

Погода в Туале (Индонезия) (302 км)
Погода в Кейп-Доне (Северная территория, Австралия) (375 км)
Погода на Острове Маклер (Северная территория, Австралия) (388 км)
Погода в Гарден-Пойнте (Северная территория, Австралия) (392 км)
Погода в Неира (Индонезия) (414 км)
Погода на Острове Батерст (Северная территория, Австралия) (446 км)
Погода в Уорруви (Северная территория, Австралия) (468 км)
Погода в Гесере (Индонезия) (468 км)
Погода в Пойнт Стьюарт (Северная территория, Австралия) (477 км)
Погода в Дарвине (Северная территория, Австралия) (495 км)

Пояснения к столбцам:

Ветер - указаны скорость ветра в м/с - средняя за 10 мин, порывы в срок и между сроками (в фигурных скобках) и направление, откуда дует ветер: С - северный, СВ - северо-восточный, В - восточный, ЮВ - юго-восточный, Ю - южный, ЮЗ - юго-западный, З - западный, СЗ - северо-западный.
Видимость - горизонтальная дальность видимости в метрах или километрах. При видимости от 1 до 10 км при отсутствии осадков обычно наблюдается дымка, при ухудшении видимости до 1 км и менее - туман. В сухую погоду видимость может ухудшаться дымом, пылью или мглою.
Явления - указаны атмосферные явления, наблюдавшиеся в срок или в последний час перед сроком; фигурными скобками обозначены явления, наблюдавшиеся между сроками (за 1-3 часа до срока); квадратными скобками обозначены град или гололедные отложения с указанием их диаметра в мм.
Облачность - указаны через наклонную черту общая и нижняя облачность в баллах и высота нижней границы облаков в метрах; квадратными скобками обозначены формы облаков: Ci - перистые, Cs - перисто-слоистые, Cc - перисто-кучевые, Ac - высококучевые, As - высокослоистые, Sc - слоисто-кучевые, Ns - слоисто-дождевые, Cu - кучевые, Cb - кучево-дождевые. Подробнее классификацию облаков см. в Атласе облаков (PDF).
T - Температура воздуха - температура, измеренная на высоте 2 м над землей.
Td - Температура точки росы - температура, при понижении до которой содержащийся в воздухе водяной пар достигнет насыщения.
f - Относительная влажность воздуха - влажноcть воздуха, измеренная на высоте 2 м над землей.
Te - Эффективная температура - температура, которую ощущает одетый по сезону человек в тени. Характеристика душности погоды. При расчете учитывается влияние влажности воздуха и скорости ветра на теплоощущения человека.
Tes - Эффективная температура на солнце - температура, которую ощущает человек, с поправкой на солнечный нагрев. Характеристика знойности погоды. Зависит от высоты солнца над горизонтом, облачности и скорости ветра. Ночью, в пасмурную погоду, а также при ветре 12 м/с и более поправка равна нулю.
P - Атмосферное давление - приведенное к уровню моря атмосферное давление.
Po - Атмосферное давление - измеренное на уровне метеостанции атмосферное давление.
Tmin - Минимальная температура - минимум температуры воздуха на высоте 2 м над землей.
Tmax - Максимальная температура - максимум температуры воздуха на высоте 2 м над землей.
R - Количество осадков - Количество выпавших осадков за период времени, мм. При наведении курсора мыши на число - период времени, за который выпало указанное количество осадков.
R24 - Количество осадков - Количество выпавших осадков за 24 часа, мм.
S - Снежный покров - Высота снежного покрова, см. При наведении курсора мыши на число - состояние снежного покрова и степень покрытия местности в баллах.